Regional Weather Roundup
Issued by NWS San Diego, CA

Current Version | Previous Version | Text Only | Print | Product List | Glossary On
Versions: 1 2 3 4 5 6 7 8 9 10 11 12 13 14 15 16 17 18 19 20 21 22 23 24 25 26 27 28 29 30 31 32 33 34 35 36 37 38 39 40 41 42 43 44 45 46 47 48 49 50
000
ASUS46 KSGX 190711
RWRSGX

SAN DIEGO HOURLY WEATHER ROUNDUP
NATIONAL WEATHER SERVICE SAN DIEGO CA
1100 PM PST WED JAN 18 2017

NOTE: "FAIR" INDICATES FEW OR NO CLOUDS BELOW 12,000 FEET WITH NO
SIGNIFICANT WEATHER AND/OR OBSTRUCTIONS TO VISIBILITY.

CAZ042-043-060-061-PZZ750-775-190800-

GREATER SAN DIEGO AREA

CITY           SKY/WX    TMP DP  RH WIND       PRES   REMARKS
SAN DIEGO AP   LGT RAIN  57  50  77 SE12      30.09F
NATIONAL CITY    N/A     56  52  86 SE3       30.09F
CHULA VISTA      N/A     55  53  93 E3        30.02F
IMPERIAL BEACH LGT RAIN  56  51  84 SE6       30.09F
BROWN FIELD    LGT RAIN  53  52  96 SE14      30.08F
MIRAMAR MCAS   CLOUDY    57  51  80 SE8       30.07F
MONTGOMERY FLD LGT RAIN  53  50  89 SE8       30.08F

$$

NORTH SAN DIEGO COUNTY

CITY           SKY/WX    TMP DP  RH WIND       PRES   REMARKS
CAMP PENDLETON CLOUDY    53  51  93 NE5       30.07F
OCEANSIDE AP   CLOUDY    56  51  84 E5        30.07F
OCEANSIDE HBR    N/A     55  52  88 E3        30.10F
VISTA            N/A     53  48  84 CALM      30.07F
CARLSBAD       CLOUDY    54  51  90 E9        30.06F
DEL MAR          N/A     54  51  89 CALM      30.10F
LA JOLLA SCRIP   N/A     55  52  90 SE2       30.07F
FALLBROOK        N/A     52  52  99 E3        30.05F
ESCONDIDO        N/A     53  49  86 E3        30.11F
SAN MARCOS       N/A     53  48  84 CALM      30.10F

$$

EAST SAN DIEGO COUNTY

CITY           SKY/WX    TMP DP  RH WIND       PRES   REMARKS
RAMONA         CLOUDY    49  49 100 E5        30.08F
SANTEE LAKES     N/A     54  51  89 CALM      30.09F
LA MESA          N/A     52  50  91 CALM      30.04F
JAMUL            N/A     50  49  95 CALM      30.11F
DESCANSO N       N/A     41  39  93 E3        30.08F
CAMPO            N/A     46  46 100 S3        30.07F

$$

ORANGE COUNTY AND THE LOS ANGELES BASIN

CITY           SKY/WX    TMP DP  RH WIND       PRES   REMARKS
JOHN WAYNE AP  CLOUDY    55  50  83 E3        30.05F
LAGUNA BEACH     N/A     52  50  92 N2        30.01F
LOS ALAMITOS   MOCLDY    54  50  89 SE6       30.05F
FULLERTON      CLOUDY    55  50  83 E3        30.05F
LONG BEACH     CLOUDY    53  49  86 E7        30.05F
L.A. AP        CLOUDY    54  50  86 SE10      30.04F

$$

THE INLAND EMPIRE

CITY           SKY/WX    TMP DP  RH WIND       PRES   REMARKS
CORONA         CLOUDY    52  47  83 E5        30.07F
CHINO          CLOUDY    53  48  83 E6        30.08F
ONTARIO        CLOUDY    51  47  86 E6        30.06F
SAN BERNARDINO CLOUDY    52  46  78 CALM      30.07F
RIVERSIDE AP   CLOUDY    51  48  89 E3        30.07F
MORENO VALLEY    N/A     49  48  95 E1        28.19F
MARCH ARB      CLOUDY    49  49 100 SE6       30.06F
HORSETHIEF CYN   N/A     50  42  75 S2        30.09F
PERRIS           N/A     49  48  97 SE1       30.10F
HEMET EAST       N/A     47  43  85 CALM      30.15F
FRENCH VALLEY  NOT AVBL
TEMECULA         N/A     52  50  95 CALM      30.13F

$$

SAN BERNARDINO AND RIVERSIDE COUNTY MOUNTAINS

CITY           SKY/WX    TMP DP  RH WIND       PRES   REMARKS
BIG BEAR AP    LGT SNOW  32  30  93 W13       30.02F WCI  22
PINE COVE        N/A     33  32  98 N6        30.08S WCI  27

$$

SOUTHERN DESERT INCLUDING THE COACHELLA VALLEY

CITY           SKY/WX    TMP DP  RH WIND       PRES   REMARKS
PALM SPRINGS   CLOUDY    57  38  48 CALM      30.04F
PALM DESERT      N/A     56  37  48 CALM        N/A
THERMAL        CLOUDY    53  45  74 CALM      30.03F
BLYTHE         CLOUDY    56  34  43 S12       30.01F
IMPERIAL AP    LGT RAIN  56  48  74 W13       30.06S
EL CENTRO NAS  LGT RAIN  56  48  74 W10       30.08S
YUMA AZ        CLOUDY    53  37  54 S5        30.06
MEXICALI       LGT RAIN  55  41  58 W2        30.08

$$

UPPER DESERT

CITY           SKY/WX    TMP DP  RH WIND       PRES   REMARKS
VICTORVILLE AP CLOUDY    45  36  70 S14       29.96F
HESPERIA         N/A     46  36  67 W7        30.14F
PALMDALE       CLOUDY    51  39  63 N13G22    29.95F
LANCASTER      CLOUDY    47  38  71 W17G24    29.96F
EDWARDS AFB    CLOUDY    46  39  76 SW23      29.92F
DAGGETT        CLOUDY    47  42  83 E5        29.98F
29 PALMS N     CLOUDY    51  37  58 SE8       30.06F
NEEDLES        CLOUDY    55  32  41 N3        29.99F

$$

REGIONAL REPORTS

CITY           SKY/WX    TMP DP  RH WIND       PRES   REMARKS
SANTA BARBARA  CLOUDY    53  49  86 E8        30.02F
SANDBERG       FOG       38  37  97 S24G32    29.95F VSB 1/2 WCI  27
LAS VEGAS NV   CLOUDY    51  33  50 SW10      29.93S
PHOENIX AZ     PTCLDY    52  42  69 CALM      30.03R
TIJUANA        CLOUDY    54  48  82 CALM      30.14
ENSENADA NW      N/A     56  32  40 CALM      30.13F

$$

OFFSHORE ISLANDS

CITY           SKY/WX    TMP DP  RH WIND       PRES   REMARKS
CATALINA ARPT  CLOUDY    49  47  93 SE16G25   30.02F
SAN NICOLAS IS CLOUDY    54  32  43 SE17      30.02S

$$

MARINE AND OFFSHORE BUOY REPORTS

STATION/POSITION SKY/WX   TEMP    WIND        PRES    VSBY  SWELL
                          AIR SEA DIR/SP/G                  HT/PER/DIR
                          (F)     (DEG/KT/KT) (MB)    (MI)  (FT/S/D)
TANNER BANKS               59 60  160/ 21/ 25 1015.9R         7/280/14
S CLEMENTE BASIN           57 61  140/ 19/ 21 1016.4F         5/280/15
SAN NICOLAS IS.               60                N/A           7/300/14
SO. S. ROSA ISLA           57 57  170/ 14/ 17 1016.4R         7/270/14
W. S. BARBARA CH           57 58  160/ 19/ 23 1015.7S         7/280/14
M. S. BARBARA CH                  120/ 17/ 23 1017.3F
S. MONICA BASIN            57 59  130/ 17/ 21 1016.4F
S PEDRO CHANNEL               60                N/A           3/270/14
CMP PENDLETON NS              59                N/A           2/250/13
OCEANSIDE OFFSHR              60                N/A           2/240/13
TORREY PINES OTR              60                N/A           3/270/14
POINT LOMA SOUTH              60                N/A           3/270/14

$$




USA.gov is the U.S. government's official web portal to all federal, state and local government web resources and services.